Location: Fort Hays State University
(38.8712°N, 99.3432°W)
Time: 08:14:41
(UTC-06:00)

Cosmos 2279 Rocket - Visible Passes

Search period start: 25 January 2015 00:00
Search period end: 04 February 2015 00:00
Orbit: 966 x 978 km, 82.9° (Epoch: 24 January)

Date Brightness Start Highest point End Pass type
(mag) Time Alt. Az. Time Alt. Az. Time Alt. Az.
25 Jan 6.2 05:33:15 10° NNE 05:37:59 23° ENE 05:42:53 10° ESE visible
25 Jan 4.2 07:17:39 10° NNW 07:23:43 51° W 07:29:42 10° SSW visible
25 Jan 4.1 19:00:01 10° SSE 19:05:59 52° E 19:12:03 10° NNE visible
25 Jan 6.1 20:46:54 10° WSW 20:51:44 22° WNW 20:56:23 10° NNW visible
26 Jan 5.3 05:56:55 10° N 06:02:45 40° ENE 06:08:37 10° SE visible
26 Jan 4.0 19:24:05 10° S 19:30:18 87° W 19:36:36 10° N visible
26 Jan 6.8 21:14:16 10° W 21:16:45 12° WNW 21:18:48 10° NW visible
27 Jan 4.3 06:21:03 10° N 06:27:19 73° E 06:33:33 10° SSE visible
27 Jan 4.9 19:48:47 10° SSW 19:54:48 49° WNW 20:00:50 10° N visible
28 Jan 6.5 05:01:39 10° NNE 05:05:44 18° ENE 05:10:02 10° ESE visible
28 Jan 4.0 06:45:29 10° NNW 06:51:41 64° W 06:57:50 10° S visible
28 Jan 4.4 18:28:14 10° SSE 18:33:59 42° E 18:39:50 10° NNE visible
28 Jan 5.9 20:14:13 10° SW 20:19:30 27° WNW 20:24:40 10° NNW visible
29 Jan 5.6 05:25:03 10° NNE 05:30:35 33° ENE 05:36:10 10° SE visible
29 Jan 4.6 07:10:18 10° NNW 07:15:56 35° W 07:21:26 10° SSW visible
29 Jan 3.9 18:52:03 10° S 18:58:15 76° E 19:04:32 10° N visible
29 Jan 6.7 20:40:46 10° WSW 20:44:26 15° WNW 20:47:46 10° NNW visible
30 Jan 4.6 05:49:03 10° N 05:55:13 59° E 06:01:22 10° SSE visible
30 Jan 4.6 19:16:32 10° SSW 19:22:41 61° W 19:28:53 10° N visible
31 Jan 6.6 04:30:16 10° NE 04:33:26 15° ENE 04:36:57 10° E visible
31 Jan 3.9 06:13:22 10° N 06:19:39 79° W 06:25:53 10° S visible
31 Jan 5.6 19:41:41 10° SW 19:47:18 34° WNW 19:52:53 10° NNW visible
01 Feb 5.9 04:53:16 10° NNE 04:58:23 27° ENE 05:03:36 10° SE visible
01 Feb 4.3 06:38:03 10° NNW 06:43:57 44° W 06:49:45 10° SSW visible
01 Feb 4.1 18:20:07 10° S 18:26:13 62° E 18:32:24 10° NNE visible
01 Feb 6.5 20:07:44 10° WSW 20:12:09 19° WNW 20:16:20 10° NNW visible
02 Feb 4.9 05:17:05 10° N 05:23:06 47° ENE 05:29:05 10° SSE visible
02 Feb 5.0 07:03:11 10° NNW 07:08:07 24° W 07:12:51 10° SW visible
02 Feb 4.3 18:44:21 10° SSW 18:50:35 75° W 18:56:53 10° N visible
03 Feb 6.8 03:59:21 10° NE 04:01:07 11° ENE 04:03:20 10° E visible
03 Feb 4.0 05:41:18 10° N 05:47:36 84° E 05:53:51 10° S visible
03 Feb 5.3 19:09:15 10° SSW 19:15:08 42° WNW 19:21:01 10° N visible
